Change the Weather History Date:

Tuesday, February 25, 2014

  Actual Average (KMSN) Record (KMSN)
Temperature  
Mean Temperature 9 °F 26 °F  
Max Temperature 16 °F 35 °F 64 °F (2000)
Min Temperature 1 °F 18 °F -15 °F (1967)
Degree Days  
Heating Degree Days 56 39  
Month to date heating degree days 1059  
Since 1 July heating degree days 5372  
Cooling Degree Days 0 0  
Month to date cooling degree days 0  
Year to date cooling degree days 0  
Moisture  
Dew Point -2 °F    
Average Humidity 59    
Maximum Humidity 84    
Minimum Humidity 39    
Precipitation  
Precipitation 0.00 in 0.06 in 1.03 in (1929)
Month to date precipitation 1.27  
Year to date precipitation 2.50  
Snow  
Snow 0.00 in 0.30 in 7.40 in (1935)
Month to date snowfall 9.6  
Since 1 July snowfall 40.1  
Snow Depth -    
Sea Level Pressure  
Sea Level Pressure 30.19 in    
Wind  
Wind Speed 10 mph (WNW)    
Max Wind Speed 18 mph    
Max Gust Speed 22 mph    
Visibility 10 miles    
Events      
T = Trace of Precipitation, MM = Missing Value Source: NWS Daily Summary

Daily Weather History Graph

Daily Weather History Graph

Search for Another Location

Airport or City:

Trip Planner

Search our weather history database for the weather conditions in past years. The results will help you decide how hot, cold, wet, or windy it might be!

Date:

Astronomy

Feb. 25, 2014 Rise Set
Actual Time 6:40 AM CST 5:42 PM CST
Civil Twilight 6:11 AM CST 6:11 PM CST
Nautical Twilight 5:39 AM CST 6:43 PM CST
Astronomical Twilight 5:06 AM CST 7:16 PM CST
Moon 3:40 AM CST (2/25) 1:43 PM CST (2/25)
Length of Visible Light 11h 59m
Length of Day
11h 01m
Waning Crescent, 18% of the Moon is Illuminated
Feb 25
Waning Crescent
Mar 1
New
Mar 8
First Quarter
Mar 16
Full
Mar 23
Last Quarter

Hourly Weather History & Observations

Time (CST) Temp. Windchill Dew Point Humidity Pressure Visibility Wind Dir Wind Speed Gust Speed Precip Events Conditions
12:15 AM 15.4 °F 3.0 °F 2.3 °F 56% 30.22 in 10.0 mi NW 10.4 mph - N/A   Overcast
12:35 AM 14.9 °F 3.1 °F 2.5 °F 58% 30.22 in 10.0 mi NW 9.2 mph - N/A   Overcast
12:55 AM 14.7 °F 3.8 °F 2.7 °F 59% 30.22 in 10.0 mi NW 8.1 mph - N/A   Overcast
1:15 AM 14.7 °F 3.8 °F 2.3 °F 58% 30.22 in 10.0 mi NW 8.1 mph - N/A   Overcast
1:35 AM 14.5 °F 2.7 °F 1.9 °F 57% 30.22 in 10.0 mi NW 9.2 mph - N/A   Overcast
1:55 AM 14.0 °F 2.0 °F 3.9 °F 64% 30.21 in 10.0 mi NW 9.2 mph - N/A   Overcast
2:15 AM 13.3 °F 2.0 °F 5.4 °F 71% 30.21 in 7.0 mi NW 8.1 mph - N/A   Overcast
2:35 AM 13.1 °F 1.8 °F 6.4 °F 75% 30.21 in 5.0 mi NW 8.1 mph - N/A   Overcast
2:55 AM 12.4 °F 0.9 °F 6.4 °F 77% 30.21 in 5.0 mi WNW 8.1 mph - N/A   Mostly Cloudy
3:15 AM 12.0 °F 0.5 °F 6.4 °F 78% 30.21 in 7.0 mi WNW 8.1 mph - N/A   Scattered Clouds
3:35 AM 11.3 °F 0.7 °F 5.9 °F 79% 30.21 in 7.0 mi WNW 6.9 mph - N/A   Scattered Clouds
3:55 AM 10.0 °F -0.9 °F 5.0 °F 80% 30.21 in 10.0 mi West 6.9 mph - N/A   Clear
4:15 AM 9.5 °F -0.3 °F 4.6 °F 81% 30.20 in 10.0 mi WNW 5.8 mph - N/A   Clear
4:35 AM 8.1 °F -3.2 °F 3.2 °F 81% 30.20 in 10.0 mi West 6.9 mph - N/A   Clear
4:55 AM 8.1 °F -3.2 °F 3.6 °F 82% 30.20 in 10.0 mi West 6.9 mph - N/A   Clear
5:15 AM 7.0 °F -4.5 °F 2.5 °F 82% 30.20 in 10.0 mi West 6.9 mph - N/A   Clear
5:35 AM 7.5 °F -2.6 °F 3.6 °F 84% 30.20 in 10.0 mi West 5.8 mph - N/A   Clear
5:55 AM 7.3 °F -1.3 °F 3.4 °F 84% 30.20 in 10.0 mi West 4.6 mph - N/A   Clear
6:15 AM 7.7 °F - 3.6 °F 83% 30.20 in 10.0 mi Calm Calm - N/A   Clear
6:35 AM 7.3 °F -4.1 °F 2.8 °F 82% 30.20 in 10.0 mi West 6.9 mph - N/A   Clear
6:55 AM 7.2 °F -4.3 °F 2.3 °F 80% 30.20 in 7.0 mi West 6.9 mph - N/A   Clear
7:15 AM 7.5 °F -6.0 °F 2.5 °F 80% 30.21 in 7.0 mi West 9.2 mph - N/A   Clear
7:35 AM 8.2 °F -1.8 °F 2.3 °F 77% 30.21 in 10.0 mi West 5.8 mph - N/A   Clear
7:55 AM 9.0 °F -3.2 °F 2.8 °F 76% 30.21 in 10.0 mi WNW 8.1 mph - N/A   Clear
8:15 AM 9.5 °F -5.2 °F 2.3 °F 73% 30.20 in 10.0 mi WNW 11.5 mph - N/A   Clear
8:35 AM 9.9 °F -4.7 °F 2.1 °F 71% 30.21 in 10.0 mi WNW 11.5 mph - N/A   Clear
8:55 AM 10.2 °F -2.7 °F 1.8 °F 69% 30.22 in 10.0 mi WNW 9.2 mph - N/A   Clear
9:15 AM 10.8 °F -2.0 °F 0.9 °F 64% 30.22 in 10.0 mi WNW 9.2 mph - N/A   Clear
9:35 AM 11.3 °F -2.2 °F 0.3 °F 61% 30.21 in 10.0 mi WNW 10.4 mph - N/A   Clear
9:55 AM 12.2 °F -1.8 °F 0.1 °F 59% 30.21 in 10.0 mi West 11.5 mph - N/A   Clear
10:15 AM 12.4 °F -2.3 °F -0.6 °F 56% 30.20 in 10.0 mi WNW 12.7 mph - N/A   Clear
10:35 AM 13.1 °F 0.1 °F -1.1 °F 53% 30.20 in 10.0 mi WNW 10.4 mph - N/A   Clear
10:55 AM 13.8 °F 1.8 °F -1.7 °F 50% 30.19 in 10.0 mi WNW 9.2 mph - N/A   Clear
11:15 AM 14.0 °F -0.8 °F -2.0 °F 49% 30.20 in 10.0 mi West 13.8 mph 18.4 mph N/A   Clear
11:35 AM 14.5 °F 1.1 °F -2.6 °F 47% 30.20 in 10.0 mi WNW 11.5 mph 19.6 mph N/A   Clear
11:55 AM 14.9 °F 1.6 °F -3.1 °F 45% 30.19 in 10.0 mi WNW 11.5 mph - N/A   Clear
12:15 PM 15.8 °F 3.4 °F -2.7 °F 44% 30.18 in 10.0 mi WNW 10.4 mph - N/A   Clear
12:35 PM 15.8 °F 1.4 °F -1.5 °F 47% 30.17 in 10.0 mi West 13.8 mph - N/A   Clear
12:55 PM 15.3 °F -0.4 °F -2.7 °F 45% 30.18 in 10.0 mi West 16.1 mph - N/A   Clear
1:15 PM 16.0 °F 0.1 °F -2.0 °F 45% 30.17 in 10.0 mi West 17.3 mph 21.9 mph N/A   Clear
1:35 PM 15.6 °F 1.2 °F -3.6 °F 42% 30.16 in 10.0 mi West 13.8 mph 18.4 mph N/A   Clear
1:55 PM 15.8 °F 0.9 °F -4.2 °F 41% 30.15 in 10.0 mi West 15.0 mph 20.7 mph N/A   Clear
2:15 PM 15.6 °F 0.1 °F -4.7 °F 40% 30.15 in 10.0 mi West 16.1 mph - N/A   Clear
2:35 PM 15.4 °F 1.0 °F -5.6 °F 39% 30.15 in 10.0 mi West 13.8 mph - N/A   Clear
2:55 PM 15.4 °F 0.4 °F -5.8 °F 39% 30.14 in 10.0 mi West 15.0 mph - N/A   Clear
3:15 PM 15.6 °F 0.6 °F -4.4 °F 41% 30.13 in 10.0 mi West 15.0 mph - N/A   Clear
3:35 PM 15.4 °F 1.0 °F -3.3 °F 44% 30.13 in 10.0 mi West 13.8 mph - N/A   Clear
3:55 PM 14.9 °F 0.3 °F -5.6 °F 40% 30.12 in 10.0 mi West 13.8 mph - N/A   Clear
4:15 PM 14.5 °F -0.7 °F -5.1 °F 42% 30.12 in 10.0 mi West 15.0 mph 19.6 mph N/A   Clear
4:35 PM 13.8 °F -2.7 °F -5.3 °F 43% 30.12 in 10.0 mi West 17.3 mph - N/A   Clear
4:55 PM 13.1 °F -4.2 °F -5.8 °F 43% 30.12 in 10.0 mi West 18.4 mph - N/A   Clear
5:15 PM 12.2 °F -2.5 °F -5.6 °F 45% 30.13 in 10.0 mi WNW 12.7 mph 19.6 mph N/A   Clear
5:35 PM 11.1 °F -3.2 °F -6.0 °F 46% 30.13 in 10.0 mi West 11.5 mph - N/A   Clear
5:55 PM 10.2 °F -5.0 °F -6.0 °F 48% 30.14 in 10.0 mi West 12.7 mph - N/A   Clear
6:15 PM 9.5 °F -4.4 °F -6.0 °F 50% 30.15 in 10.0 mi West 10.4 mph - N/A   Clear
6:35 PM 8.6 °F -3.7 °F -6.2 °F 51% 30.15 in 10.0 mi West 8.1 mph - N/A   Clear
6:55 PM 8.1 °F -4.3 °F -6.9 °F 51% 30.16 in 10.0 mi WNW 8.1 mph - N/A   Clear
7:15 PM 7.7 °F -4.8 °F -6.7 °F 52% 30.16 in 10.0 mi WNW 8.1 mph - N/A   Clear
7:35 PM 7.2 °F -8.9 °F -7.1 °F 52% 30.16 in 10.0 mi WNW 12.7 mph - N/A   Clear
7:55 PM 6.6 °F -8.0 °F -7.6 °F 52% 30.17 in 10.0 mi WNW 10.4 mph - N/A   Clear
8:15 PM 6.6 °F -8.8 °F -8.5 °F 50% 30.17 in 10.0 mi WNW 11.5 mph - N/A   Clear
8:35 PM 5.9 °F -12.4 °F -8.1 °F 53% 30.18 in 10.0 mi WNW 16.1 mph - N/A   Clear
8:55 PM 5.5 °F -10.2 °F -8.0 °F 54% 30.19 in 10.0 mi WNW 11.5 mph - N/A   Clear
9:15 PM 5.0 °F -10.0 °F -8.1 °F 55% 30.20 in 10.0 mi WNW 10.4 mph - N/A   Clear
9:35 PM 4.8 °F -11.1 °F -8.5 °F 54% 30.21 in 10.0 mi WNW 11.5 mph 18.4 mph N/A   Clear
9:55 PM 4.1 °F -12.0 °F -8.5 °F 56% 30.21 in 10.0 mi WNW 11.5 mph - N/A   Clear
10:15 PM 3.7 °F -13.2 °F -8.1 °F 58% 30.22 in 10.0 mi NW 12.7 mph - N/A   Clear
10:35 PM 3.4 °F -12.9 °F -8.5 °F 58% 30.22 in 10.0 mi WNW 11.5 mph - N/A   Clear
10:55 PM 3.0 °F -12.5 °F -8.5 °F 59% 30.22 in 10.0 mi WNW 10.4 mph 16.1 mph N/A   Clear
11:15 PM 2.5 °F -11.1 °F -8.7 °F 60% 30.21 in 10.0 mi WNW 8.1 mph - N/A   Clear
11:35 PM 2.1 °F -13.6 °F -9.0 °F 60% 30.22 in 10.0 mi WNW 10.4 mph - N/A   Clear
11:55 PM 1.4 °F -14.5 °F -9.4 °F 61% 30.22 in 10.0 mi WNW 10.4 mph - N/A   Clear